Regional Weather Roundup
Issued by NWS State College, PA

Home | Current Version | Previous Version | Text Only | Print | Product List | Glossary On
Versions: 1 2 3 4 5 6 7 8 9 10 11 12 13 14 15 16 17 18 19 20 21 22 23 24 25 26 27 28 29 30 31 32 33 34 35 36 37 38 39 40 41 42 43 44 45 46 47 48 49 50
000
ASUS41 KCTP 200210
RWRCTP

REGIONAL WEATHER ROUNDUP
NATIONAL WEATHER SERVICE STATE COLLEGE PA
1000 PM EDT FRI SEP 19 2014

Note: "fair" indicates few or no clouds below 12,000 feet with no
significant weather and/or obstructions to visibility.

* = STATION THAT DOES NOT REPORT PRECIPITATION /E.G. RAIN...SNOW...ETC/
    THUNDER OR FOG.

PAZ002>004-007>009-013>016-020>023-029>032-200300-
WESTERN PENNSYLVANIA

CITY           SKY/WX    TMP DP  RH WIND       PRES   REMARKS
ERIE           CLEAR     60  52  74 S10       30.09F
MEADVILLE      CLEAR     61  52  72 VRB5      30.13F
FRANKLIN*      CLEAR     59  50  72 SE12      30.16F
NEW CASTLE     NOT AVBL
BEAVER COUNTY  NOT AVBL
BUTLER*        PTCLDY    63  52  67 SE6       30.17F
PITTSBURGH INT PTCLDY    64  55  72 SE9       30.14F
PITTSBURGH     CLEAR     63  52  67 SE10      30.17S
INDIANA*       PTCLDY    63  54  72 S7G13     30.23F
LATROBE        CLEAR     64  55  72 S10G18    30.20R
WASHINGTON CO* CLEAR     63  55  77 SE6       30.17S
$$

PAZ004>006-010>012-017>019-024>028-033>037-041-042-045-046-049>053-200300-
CENTRAL PENNSYLVANIA

CITY           SKY/WX    TMP DP  RH WIND       PRES   REMARKS
BRADFORD       CLEAR     56  49  77 SE9       30.19F
DUBOIS         PTCLDY    58  51  78 SE10      30.19F
CLEARFIELD     MOCLDY    59  52  77 VRB3      30.22F
JOHNSTOWN      PTCLDY    57  51  80 S10       30.25R
ALTOONA        MOCLDY    61  53  75 S5        30.26F
STATE COLLEGE  CLOUDY    61  52  71 SE5       30.25F
WILLIAMSPORT   MOCLDY    63  51  65 SE16G23   30.25S
SELINSGROVE    PTCLDY    63  52  67 S8        30.28S
FT INDIANTOWN  CLOUDY    61  55  82 VRB3      30.32R
CAPITAL CITY   MOCLDY    63  54  72 SE15      30.30S
HARRISBURG     MOCLDY    63  55  75 SE12      30.30S
YORK           MOCLDY    61  55  81 SE7       30.31R
$$

PAZ038>040-043-044-047-048-054-055-060>062-067>071-200300-
EASTERN PENNSYLVANIA

CITY           SKY/WX    TMP DP  RH WIND       PRES   REMARKS
SCRANTON       MOCLDY    57  48  72 SE8       30.30R
MOUNT POCONO   PTCLDY    51  47  86 SE8       30.35R
ALLENTOWN      CLEAR     58  50  75 SE8       30.35R
QUAKERTOWN*    CLEAR     55  50  82 E3        30.36S
READING        CLEAR     60  52  74 SE10G17   30.32S
LANCASTER      CLEAR     58  53  84 SE7       30.33R
COATESVILLE    CLEAR     55  54  94 SE7       30.35S
POTTSTOWN      CLEAR     56  51  84 CALM      30.36S
BLUE BELL      CLEAR     55  52  88 E3        30.35S
DOYLESTOWN     CLEAR     54  51  90 CALM      30.35R
WILLOW GROVE   NOT AVBL
NORTH PHILA    CLEAR     60  51  72 E8        30.37S
PHILADELPHIA   CLEAR     60  54  80 E8        30.35S
$$



USA.gov is the U.S. government's official web portal to all federal, state and local government web resources and services.